Flag for United Kingdom Weather past 2 weeks in Inverness, Scotland, United Kingdom

Now
28 °F

Chilly.


Feels Like: 20 °F
Forecast: 28 / 38 °F
Wind: 9 mph from West

Location: Inverness / Dalcross

Current Time: Dec 28, 2014 at 3:07:34 AM

Latest Report: Dec 28, 2014 at 2:20 AM


Visibility: N/A

Pressure: 30.27 "Hg

Humidity: 93%

Dew point: 27 °F

Location of InvernessLocation

Historic Weather in Inverness — Graph

°F

Inverness temperature yesterday

Maximum temperature yesterday: 36 °F (at 1:20 PM)
Minimum temperature yesterday: 27 °F (at 12:50 AM)
Average temperature yesterday: 32 °F

Past Weeks' High & Low Weather Summary

 TemperatureHumidityPressure
High50 °F (Dec 21, 11:20 AM)100% (Dec 17, 12:20 AM)30.42 "Hg (Dec 17, 12:20 AM)
Low27 °F (Dec 25, 5:50 AM)57% (Dec 20, 5:20 AM)29.09 "Hg (Dec 14, 6:50 AM)
Average38 °F85%29.65 "Hg
* Reported Dec 13 1:20 AM — Dec 28 1:50 AM, Inverness, Weather by CustomWeather, © 2014

Note: Actual official high and low records may vary slightly from our data, if they occured in-between our weather recording intervals... More about our weather records

Advertising

Inverness weather history for previous 24 hours

 ConditionsComfort  
Time TempWeatherWind HumidityBarometerVisibility
1:50 AM
Dec 28
28 °FChilly.9 mph93%30.27 "HgN/A
1:20 AM30 °FChilly.10 mph93%30.27 "HgN/A
12:50 AM30 °FChilly.8 mph93%30.24 "HgN/A
12:20 AM30 °FPassing clouds.8 mph93%30.24 "HgN/A
11:50 PM
Dec 27
32 °FPassing clouds.7 mph93%30.24 "HgN/A
11:20 PM32 °FPassing clouds.8 mph93%30.21 "HgN/A
10:50 PM34 °FPartly cloudy.8 mph87%30.21 "HgN/A
10:20 PM34 °FPassing clouds.7 mph87%30.18 "HgN/A
9:50 PM34 °FPassing clouds.9 mph87%30.18 "HgN/A
9:20 PM34 °FPassing clouds.9 mph87%30.15 "HgN/A
8:50 PM34 °FPassing clouds.9 mph87%30.12 "HgN/A
8:20 PM34 °FPassing clouds.8 mph87%30.12 "HgN/A
7:50 PM32 °FPassing clouds.9 mph87%30.09 "HgN/A
7:20 PM34 °FPassing clouds.9 mph87%30.07 "HgN/A
6:50 PM32 °FPassing clouds.8 mph87%30.07 "HgN/A
6:20 PM30 °FPassing clouds.7 mph93%30.04 "HgN/A
5:50 PM30 °FPassing clouds.7 mph93%30.01 "HgN/A
5:20 PM30 °FPassing clouds.5 mph93%30.01 "HgN/A
4:50 PM30 °FPassing clouds.6 mph93%29.98 "HgN/A
4:20 PM34 °FPassing clouds.8 mph87%29.95 "HgN/A
3:50 PM34 °FPassing clouds.9 mph87%29.95 "HgN/A
3:20 PM34 °FScattered showers. Scattered clouds.7 mph93%29.92 "HgN/A
2:50 PM36 °FPassing clouds.6 mph87%29.92 "HgN/A
2:20 PM36 °FScattered clouds.6 mph87%29.89 "HgN/A
1:50 PM36 °FPassing clouds.5 mph87%29.89 "HgN/A
1:20 PM36 °FPassing clouds.6 mph87%29.86 "HgN/A
12:50 PM34 °FPassing clouds.6 mph93%29.86 "HgN/A
12:20 PM34 °FScattered clouds.5 mph93%29.86 "HgN/A
11:50 AM34 °FScattered clouds.5 mph93%29.86 "HgN/A
11:20 AM34 °FScattered clouds.8 mph93%29.83 "HgN/A
10:50 AM30 °FPassing clouds.6 mph93%29.83 "HgN/A
10:20 AM30 °FPassing clouds.5 mph100%29.83 "HgN/A
9:50 AM32 °FPassing clouds.3 mph93%29.83 "HgN/A
9:20 AM32 °FPassing clouds.5 mph93%29.80 "HgN/A
8:50 AM34 °FPassing clouds.7 mph93%29.80 "HgN/A
8:20 AM34 °FLight rain. Passing clouds.7 mph93%29.80 "HgN/A
7:50 AM34 °FLight rain. Partly cloudy.8 mph93%29.80 "HgN/A
7:20 AM34 °FPassing clouds.7 mph93%29.80 "HgN/A
6:50 AM34 °FPassing clouds.6 mph93%29.80 "HgN/A
6:20 AM34 °FSprinkles. Partly cloudy.12 mph93%29.77 "HgN/A
5:50 AM32 °FLight rain. Passing clouds.9 mph93%29.77 "HgN/A
5:20 AM32 °FPassing clouds.8 mph87%29.80 "HgN/A
4:50 AM30 °FChilly.6 mph93%29.80 "HgN/A
4:20 AM30 °FChilly.7 mph86%29.80 "HgN/A
3:20 AM30 °FChilly.9 mph93%29.80 "HgN/A
Weather by CustomWeather, © 2014

See weather overviewHow to use our weather pages